This is the latest recevied weather packets stored in our database for station/object NO4D. If no packets are shown the sender has not sent any weather packets the latest 10 day(s).
| Time | Temp. | Humidity | Pressure | Rain* | Wind** | Luminosity | Snow |
|---|---|---|---|---|---|---|---|
| 1778066990 | 17.78° C | 82% | 1014.7 hPa | 0 mm | - | 24 W/m² | - |
| 1778066688 | 17.78° C | 82% | 1014.4 hPa | 0 mm | - | 27 W/m² | - |
| 1778066385 | 17.78° C | 82% | 1014.3 hPa | 0 mm | - | 24 W/m² | - |
| 1778066083 | 17.78° C | 82% | 1014.1 hPa | 0 mm | - | 29 W/m² | - |
| 1778065780 | 17.78° C | 82% | 1014 hPa | 0 mm | - | 21 W/m² | - |
| 1778065478 | 17.78° C | 82% | 1014 hPa | 0 mm | - | 13 W/m² | - |
| 1778065174 | 17.78° C | 82% | 1013.8 hPa | 0 mm | - | 9 W/m² | - |
| 1778064870 | 17.78° C | 82% | 1013.7 hPa | 0 mm | - | 5 W/m² | - |
| 1778064567 | 17.22° C | 83% | 1013.9 hPa | 0 mm | - | 5 W/m² | - |
| 1778064265 | 17.22° C | 83% | 1013.7 hPa | 0 mm | - | 4 W/m² | - |
| 1778063964 | 17.22° C | 83% | 1013.5 hPa | 0 mm | - | 1 W/m² | - |
| 1778063660 | 17.22° C | 83% | 1013.9 hPa | 0 mm | - | 0 W/m² | - |
| 1778063357 | 17.22° C | 84% | 1013.4 hPa | 0 mm | - | 0 W/m² | - |
| 1778063056 | 17.22° C | 84% | 1012.9 hPa | 0 mm | - | 0 W/m² | - |
| 1778062752 | 17.22° C | 84% | 1013.6 hPa | 0 mm | - | 0 W/m² | - |
| 1778062448 | 17.22° C | 84% | 1013 hPa | 0 mm | - | 0 W/m² | - |
| 1778062146 | 17.22° C | 84% | 1013.1 hPa | 0 mm | - | 0 W/m² | - |
| 1778061844 | 17.22° C | 84% | 1013.1 hPa | 0 mm | - | 0 W/m² | - |
| 1778061542 | 17.22° C | 84% | 1013.2 hPa | 0 mm | - | 0 W/m² | - |
| 1778061240 | 17.22° C | 84% | 1013.3 hPa | 0 mm | - | 0 W/m² | - |
| 1778060936 | 17.22° C | 84% | 1013.4 hPa | 0 mm | - | 0 W/m² | - |
| 1778060635 | 17.22° C | 84% | 1013.5 hPa | 0 mm | - | 0 W/m² | - |
| 1778060332 | 17.22° C | 84% | 1013.5 hPa | 0 mm | - | 0 W/m² | - |
| 1778060030 | 17.22° C | 84% | 1013.6 hPa | 0 mm | - | 0 W/m² | - |
| 1778059728 | 17.22° C | 84% | 1013.6 hPa | 0 mm | - | 0 W/m² | - |
* Rain latest hour (hover to see other rain measurements)
** Current wind speed in m/s (hover to see current wind gust speed)